Location: Caltech
(34.1382°N, 118.1253°W)
Time: 12:09:18
(UTC-07:00)

Saudisat 1A - Visible Passes

Search period start: 23 June 2017 00:00
Search period end: 03 July 2017 00:00
Orbit: 576 x 616 km, 64.6° (Epoch: 22 June)

Date Brightness Start Highest point End Pass type
(mag) Time Alt. Az. Time Alt. Az. Time Alt. Az.
23 Jun 9.8 04:11:25 10° S 04:15:09 27° ESE 04:18:56 10° NE visible
24 Jun 8.6 04:21:33 16° S 04:24:58 53° ESE 04:29:20 10° NE visible
25 Jun 8.0 04:31:37 18° SSW 04:34:51 79° WNW 04:39:21 10° NNE visible
26 Jun 10.2 03:04:57 16° ESE 03:05:48 16° ESE 03:08:35 10° ENE visible
26 Jun 8.7 04:41:37 16° WSW 04:44:51 41° WNW 04:49:06 10° NNE visible
27 Jun 9.3 03:14:54 30° SE 03:15:32 31° ESE 03:19:29 10° NE visible
27 Jun 9.6 04:51:33 11° WSW 04:54:57 23° NW 04:58:34 10° N visible
28 Jun 8.2 03:24:47 55° SSE 03:25:21 61° ESE 03:29:47 10° NE visible
28 Jun 10.2 05:02:51 10° W 05:05:10 14° NW 05:07:28 10° NNW visible
29 Jun 8.0 03:34:36 58° WSW 03:35:16 69° WNW 03:39:45 10° NNE visible
30 Jun 10.4 02:07:44 16° E 02:07:44 16° E 02:09:16 10° ENE visible
30 Jun 8.9 03:44:23 33° W 03:45:17 36° NW 03:49:26 10° NNE visible
01 Jul 9.8 02:17:27 27° ENE 02:17:27 27° ENE 02:20:00 10° NE visible
01 Jul 9.7 03:54:06 19° WNW 03:55:24 21° NW 03:58:48 10° N visible
02 Jul 9.1 02:27:08 42° NE 02:27:08 42° NE 02:30:12 10° NE visible
02 Jul 10.4 04:03:47 10° WNW 04:05:38 12° NW 04:07:29 10° NNW visible
